Torna al catalogo

COSMOS 1818 COOLANT

AttivoLEO
NORAD 36938·DEBRIS·🇷🇺 Russia

Lanciato Feb 1, 1987 da Baikonur Cosmodrome

Loading…

Prossimi Passaggi (prossime 24 ore)

TLE

In scadenzaSource: Space-Track

Epoca: Sep 9, 2026, 10:12 UTC

1 36938U 87011S   26252.42517322  .00000410  00000-0  16540-3 0  9993
2 36938  65.0059 308.0079 0021237 283.0921  76.7797 14.38932539279900

Traccia COSMOS 1818 COOLANT in tempo reale con AllMySat

Download on the App Store